owner,sensor,date,latitude,longitude,sea_surface_height_above_sea_level,qcFlag 
COMPS,ioos:station:USF.COMPS:FHP:1,2017-01-01T02:00:00Z,28.1530,-82.8010,-9.992,1111122 
COMPS,ioos:station:USF.COMPS:FHP:1,2017-01-01T02:06:00Z,28.1530,-82.8010,-9.98,1111122 
COMPS,ioos:station:USF.COMPS:FHP:1,2017-01-01T02:12:00Z,28.1530,-82.8010,-9.983,1111122 
COMPS,ioos:station:USF.COMPS:FHP:1,2017-01-01T02:18:00Z,28.1530,-82.8010,-9.953,1111122 
COMPS,ioos:station:USF.COMPS:FHP:1,2017-01-01T02:24:00Z,28.1530,-82.8010,-9.954,1111122 
COMPS,ioos:station:USF.COMPS:FHP:1,2017-01-01T02:30:00Z,28.1530,-82.8010,-9.924,1111122 
COMPS,ioos:station:USF.COMPS:FHP:1,2017-01-01T02:36:00Z,28.1530,-82.8010,-9.902,1111122 
COMPS,ioos:station:USF.COMPS:FHP:1,2017-01-01T02:42:00Z,28.1530,-82.8010,-9.88,1111122 
COMPS,ioos:station:USF.COMPS:FHP:1,2017-01-01T02:48:00Z,28.1530,-82.8010,-9.856,1111122 
COMPS,ioos:station:USF.COMPS:FHP:1,2017-01-01T02:54:00Z,28.1530,-82.8010,-9.84,1111122 
COMPS,ioos:station:USF.COMPS:FHP:1,2017-01-01T03:00:00Z,28.1530,-82.8010,-9.819,1111122 
COMPS,ioos:station:USF.COMPS:FHP:1,2017-01-01T03:06:00Z,28.1530,-82.8010,-9.802,1111122 
COMPS,ioos:station:USF.COMPS:FHP:1,2017-01-01T03:12:00Z,28.1530,-82.8010,-9.782,1111122 
COMPS,ioos:station:USF.COMPS:FHP:1,2017-01-01T03:18:00Z,28.1530,-82.8010,-9.758,1111122 
COMPS,ioos:station:USF.COMPS:FHP:1,2017-01-01T03:24:00Z,28.1530,-82.8010,-9.743,1111122 
COMPS,ioos:station:USF.COMPS:FHP:1,2017-01-01T03:30:00Z,28.1530,-82.8010,-9.726,1111122 
COMPS,ioos:station:USF.COMPS:FHP:1,2017-01-01T03:36:00Z,28.1530,-82.8010,-9.722,1111122 
COMPS,ioos:station:USF.COMPS:FHP:1,2017-01-01T03:42:00Z,28.1530,-82.8010,-9.708,1111122 
COMPS,ioos:station:USF.COMPS:FHP:1,2017-01-01T03:48:00Z,28.1530,-82.8010,-9.702,1111122 
COMPS,ioos:station:USF.COMPS:FHP:1,2017-01-01T03:54:00Z,28.1530,-82.8010,-9.685,1111122 
COMPS,ioos:station:USF.COMPS:FHP:1,2017-01-01T04:00:00Z,28.1530,-82.8010,-9.67,1111122 
COMPS,ioos:station:USF.COMPS:FHP:1,2017-01-01T04:06:00Z,28.1530,-82.8010,-9.657,1111122 
COMPS,ioos:station:USF.COMPS:FHP:1,2017-01-01T04:12:00Z,28.1530,-82.8010,-9.644,1111122 
COMPS,ioos:station:USF.COMPS:FHP:1,2017-01-01T04:18:00Z,28.1530,-82.8010,-9.632,1111122 
COMPS,ioos:station:USF.COMPS:FHP:1,2017-01-01T04:24:00Z,28.1530,-82.8010,-9.623,1111122 
COMPS,ioos:station:USF.COMPS:FHP:1,2017-01-01T04:30:00Z,28.1530,-82.8010,-9.616,1111122 
COMPS,ioos:station:USF.COMPS:FHP:1,2017-01-01T04:36:00Z,28.1530,-82.8010,-9.61,1111122 
COMPS,ioos:station:USF.COMPS:FHP:1,2017-01-01T04:42:00Z,28.1530,-82.8010,-9.596,1111122 
COMPS,ioos:station:USF.COMPS:FHP:1,2017-01-01T04:48:00Z,28.1530,-82.8010,-9.585,1111122 
COMPS,ioos:station:USF.COMPS:FHP:1,2017-01-01T04:54:00Z,28.1530,-82.8010,-9.574,1111122 
COMPS,ioos:station:USF.COMPS:FHP:1,2017-01-01T05:00:00Z,28.1530,-82.8010,-9.568,1111122 
COMPS,ioos:station:USF.COMPS:FHP:1,2017-01-01T05:06:00Z,28.1530,-82.8010,-9.576,1111122 
COMPS,ioos:station:USF.COMPS:FHP:1,2017-01-01T05:12:00Z,28.1530,-82.8010,-9.576,1111122 
COMPS,ioos:station:USF.COMPS:FHP:1,2017-01-01T05:18:00Z,28.1530,-82.8010,-9.571,1111122 
COMPS,ioos:station:USF.COMPS:FHP:1,2017-01-01T05:24:00Z,28.1530,-82.8010,-9.576,1111122 
COMPS,ioos:station:USF.COMPS:FHP:1,2017-01-01T05:30:00Z,28.1530,-82.8010,-9.572,1111122 
COMPS,ioos:station:USF.COMPS:FHP:1,2017-01-01T05:36:00Z,28.1530,-82.8010,-9.585,1111122 
COMPS,ioos:station:USF.COMPS:FHP:1,2017-01-01T05:42:00Z,28.1530,-82.8010,-9.59,1111122 
COMPS,ioos:station:USF.COMPS:FHP:1,2017-01-01T05:48:00Z,28.1530,-82.8010,-9.579,1111122 
COMPS,ioos:station:USF.COMPS:FHP:1,2017-01-01T05:54:00Z,28.1530,-82.8010,-9.583,1111122 
COMPS,ioos:station:USF.COMPS:FHP:1,2017-01-01T06:00:00Z,28.1530,-82.8010,-9.592,1111122 
COMPS,ioos:station:USF.COMPS:FHP:1,2017-01-01T06:06:00Z,28.1530,-82.8010,-9.586,1111122 
COMPS,ioos:station:USF.COMPS:FHP:1,2017-01-01T06:12:00Z,28.1530,-82.8010,-9.605,1111122 
COMPS,ioos:station:USF.COMPS:FHP:1,2017-01-01T06:18:00Z,28.1530,-82.8010,-9.601,1111122 
COMPS,ioos:station:USF.COMPS:FHP:1,2017-01-01T06:24:00Z,28.1530,-82.8010,-9.614,1111122 
COMPS,ioos:station:USF.COMPS:FHP:1,2017-01-01T06:30:00Z,28.1530,-82.8010,-9.606,1111122 
COMPS,ioos:station:USF.COMPS:FHP:1,2017-01-01T06:36:00Z,28.1530,-82.8010,-9.614,1111122 
COMPS,ioos:station:USF.COMPS:FHP:1,2017-01-01T06:42:00Z,28.1530,-82.8010,-9.627,1111122 
COMPS,ioos:station:USF.COMPS:FHP:1,2017-01-01T06:48:00Z,28.1530,-82.8010,-9.638,1111122 
COMPS,ioos:station:USF.COMPS:FHP:1,2017-01-01T06:54:00Z,28.1530,-82.8010,-9.645,1111122 
COMPS,ioos:station:USF.COMPS:FHP:1,2017-01-01T07:00:00Z,28.1530,-82.8010,-9.655,1111122 
COMPS,ioos:station:USF.COMPS:FHP:1,2017-01-01T07:06:00Z,28.1530,-82.8010,-9.665,1111122 
COMPS,ioos:station:USF.COMPS:FHP:1,2017-01-01T07:18:00Z,28.1530,-82.8010,-9.698,1111122 
COMPS,ioos:station:USF.COMPS:FHP:1,2017-01-01T07:24:00Z,28.1530,-82.8010,-9.706,1111122 
COMPS,ioos:station:USF.COMPS:FHP:1,2017-01-01T07:30:00Z,28.1530,-82.8010,-9.722,1111122 
COMPS,ioos:station:USF.COMPS:FHP:1,2017-01-01T07:36:00Z,28.1530,-82.8010,-9.732,1111122 
COMPS,ioos:station:USF.COMPS:FHP:1,2017-01-01T07:42:00Z,28.1530,-82.8010,-9.758,1111122 
COMPS,ioos:station:USF.COMPS:FHP:1,2017-01-01T07:48:00Z,28.1530,-82.8010,-9.771,1111122 
COMPS,ioos:station:USF.COMPS:FHP:1,2017-01-01T07:54:00Z,28.1530,-82.8010,-9.79,1111122 
COMPS,ioos:station:USF.COMPS:FHP:1,2017-01-01T08:00:00Z,28.1530,-82.8010,-9.808,1111122 
COMPS,ioos:station:USF.COMPS:FHP:1,2017-01-01T08:06:00Z,28.1530,-82.8010,-9.825,1111122 
COMPS,ioos:station:USF.COMPS:FHP:1,2017-01-01T08:12:00Z,28.1530,-82.8010,-9.841,1111122 
COMPS,ioos:station:USF.COMPS:FHP:1,2017-01-01T08:24:00Z,28.1530,-82.8010,-9.861,1111122 
COMPS,ioos:station:USF.COMPS:FHP:1,2017-01-01T08:30:00Z,28.1530,-82.8010,-9.876,1111122 
COMPS,ioos:station:USF.COMPS:FHP:1,2017-01-01T08:36:00Z,28.1530,-82.8010,-9.889,1111122 
COMPS,ioos:station:USF.COMPS:FHP:1,2017-01-01T08:42:00Z,28.1530,-82.8010,-9.905,1111122 
COMPS,ioos:station:USF.COMPS:FHP:1,2017-01-01T08:48:00Z,28.1530,-82.8010,-9.932,1111122 
COMPS,ioos:station:USF.COMPS:FHP:1,2017-01-01T08:54:00Z,28.1530,-82.8010,-9.95,1111122 
COMPS,ioos:station:USF.COMPS:FHP:1,2017-01-01T09:00:00Z,28.1530,-82.8010,-9.972,1111122 
COMPS,ioos:station:USF.COMPS:FHP:1,2017-01-01T09:06:00Z,28.1530,-82.8010,-9.991,1111122 
COMPS,ioos:station:USF.COMPS:FHP:1,2017-01-01T16:48:00Z,28.1530,-82.8010,-9.993,1111122 
COMPS,ioos:station:USF.COMPS:FHP:1,2017-01-01T16:54:00Z,28.1530,-82.8010,-9.974,1111122 
COMPS,ioos:station:USF.COMPS:FHP:1,2017-01-01T17:00:00Z,28.1530,-82.8010,-9.956,1111122 
COMPS,ioos:station:USF.COMPS:FHP:1,2017-01-01T17:06:00Z,28.1530,-82.8010,-9.938,1111122 
COMPS,ioos:station:USF.COMPS:FHP:1,2017-01-01T17:12:00Z,28.1530,-82.8010,-9.923,1111122 
COMPS,ioos:station:USF.COMPS:FHP:1,2017-01-01T17:18:00Z,28.1530,-82.8010,-9.904,1111122 
COMPS,ioos:station:USF.COMPS:FHP:1,2017-01-01T17:24:00Z,28.1530,-82.8010,-9.886,1111122 
COMPS,ioos:station:USF.COMPS:FHP:1,2017-01-01T17:30:00Z,28.1530,-82.8010,-9.863,1111122 
COMPS,ioos:station:USF.COMPS:FHP:1,2017-01-01T17:36:00Z,28.1530,-82.8010,-9.848,1111122 
COMPS,ioos:station:USF.COMPS:FHP:1,2017-01-01T17:42:00Z,28.1530,-82.8010,-9.832,1111122 
COMPS,ioos:station:USF.COMPS:FHP:1,2017-01-01T17:48:00Z,28.1530,-82.8010,-9.818,1111122 
COMPS,ioos:station:USF.COMPS:FHP:1,2017-01-01T17:54:00Z,28.1530,-82.8010,-9.806,1111122 
COMPS,ioos:station:USF.COMPS:FHP:1,2017-01-01T18:00:00Z,28.1530,-82.8010,-9.792,1111122 
COMPS,ioos:station:USF.COMPS:FHP:1,2017-01-01T18:06:00Z,28.1530,-82.8010,-9.778,1111122 
COMPS,ioos:station:USF.COMPS:FHP:1,2017-01-01T18:12:00Z,28.1530,-82.8010,-9.761,1111122 
COMPS,ioos:station:USF.COMPS:FHP:1,2017-01-01T18:18:00Z,28.1530,-82.8010,-9.745,1111122 
COMPS,ioos:station:USF.COMPS:FHP:1,2017-01-01T18:24:00Z,28.1530,-82.8010,-9.737,1111122 
COMPS,ioos:station:USF.COMPS:FHP:1,2017-01-01T18:30:00Z,28.1530,-82.8010,-9.723,1111122 
COMPS,ioos:station:USF.COMPS:FHP:1,2017-01-01T18:36:00Z,28.1530,-82.8010,-9.715,1111122 
COMPS,ioos:station:USF.COMPS:FHP:1,2017-01-01T18:42:00Z,28.1530,-82.8010,-9.707,1111122 
COMPS,ioos:station:USF.COMPS:FHP:1,2017-01-01T18:48:00Z,28.1530,-82.8010,-9.706,1111122 
COMPS,ioos:station:USF.COMPS:FHP:1,2017-01-01T18:54:00Z,28.1530,-82.8010,-9.704,1111122 
COMPS,ioos:station:USF.COMPS:FHP:1,2017-01-01T19:00:00Z,28.1530,-82.8010,-9.695,1111122 
COMPS,ioos:station:USF.COMPS:FHP:1,2017-01-01T19:06:00Z,28.1530,-82.8010,-9.687,1111122 
COMPS,ioos:station:USF.COMPS:FHP:1,2017-01-01T19:12:00Z,28.1530,-82.8010,-9.692,1111122 
COMPS,ioos:station:USF.COMPS:FHP:1,2017-01-01T19:18:00Z,28.1530,-82.8010,-9.695,1111122 
COMPS,ioos:station:USF.COMPS:FHP:1,2017-01-01T19:24:00Z,28.1530,-82.8010,-9.703,1111122 
COMPS,ioos:station:USF.COMPS:FHP:1,2017-01-01T19:30:00Z,28.1530,-82.8010,-9.693,1111122 
COMPS,ioos:station:USF.COMPS:FHP:1,2017-01-01T19:36:00Z,28.1530,-82.8010,-9.698,1111122 
COMPS,ioos:station:USF.COMPS:FHP:1,2017-01-01T19:42:00Z,28.1530,-82.8010,-9.688,1111122 
COMPS,ioos:station:USF.COMPS:FHP:1,2017-01-01T19:48:00Z,28.1530,-82.8010,-9.703,1111122 
COMPS,ioos:station:USF.COMPS:FHP:1,2017-01-01T19:54:00Z,28.1530,-82.8010,-9.692,1111122 
COMPS,ioos:station:USF.COMPS:FHP:1,2017-01-01T20:00:00Z,28.1530,-82.8010,-9.703,1111122 
COMPS,ioos:station:USF.COMPS:FHP:1,2017-01-01T20:06:00Z,28.1530,-82.8010,-9.702,1111122 
COMPS,ioos:station:USF.COMPS:FHP:1,2017-01-01T20:12:00Z,28.1530,-82.8010,-9.71,1111122 
COMPS,ioos:station:USF.COMPS:FHP:1,2017-01-01T20:18:00Z,28.1530,-82.8010,-9.703,1111122 
COMPS,ioos:station:USF.COMPS:FHP:1,2017-01-01T20:24:00Z,28.1530,-82.8010,-9.718,1111122 
COMPS,ioos:station:USF.COMPS:FHP:1,2017-01-01T20:30:00Z,28.1530,-82.8010,-9.711,1111122 
COMPS,ioos:station:USF.COMPS:FHP:1,2017-01-01T20:36:00Z,28.1530,-82.8010,-9.72,1111122 
COMPS,ioos:station:USF.COMPS:FHP:1,2017-01-01T20:42:00Z,28.1530,-82.8010,-9.728,1111122 
COMPS,ioos:station:USF.COMPS:FHP:1,2017-01-01T20:48:00Z,28.1530,-82.8010,-9.731,1111122 
COMPS,ioos:station:USF.COMPS:FHP:1,2017-01-01T20:54:00Z,28.1530,-82.8010,-9.742,1111122 
COMPS,ioos:station:USF.COMPS:FHP:1,2017-01-01T21:00:00Z,28.1530,-82.8010,-9.748,1111122 
COMPS,ioos:station:USF.COMPS:FHP:1,2017-01-01T21:06:00Z,28.1530,-82.8010,-9.764,1111122 
COMPS,ioos:station:USF.COMPS:FHP:1,2017-01-01T21:12:00Z,28.1530,-82.8010,-9.775,1111122 
COMPS,ioos:station:USF.COMPS:FHP:1,2017-01-01T21:18:00Z,28.1530,-82.8010,-9.785,1111122 
COMPS,ioos:station:USF.COMPS:FHP:1,2017-01-01T21:24:00Z,28.1530,-82.8010,-9.791,1111122 
COMPS,ioos:station:USF.COMPS:FHP:1,2017-01-01T21:30:00Z,28.1530,-82.8010,-9.803,1111122 
COMPS,ioos:station:USF.COMPS:FHP:1,2017-01-01T21:36:00Z,28.1530,-82.8010,-9.813,1111122 
COMPS,ioos:station:USF.COMPS:FHP:1,2017-01-01T21:42:00Z,28.1530,-82.8010,-9.821,1111122 
COMPS,ioos:station:USF.COMPS:FHP:1,2017-01-01T21:48:00Z,28.1530,-82.8010,-9.835,1111122 
COMPS,ioos:station:USF.COMPS:FHP:1,2017-01-01T21:54:00Z,28.1530,-82.8010,-9.841,1111122 
COMPS,ioos:station:USF.COMPS:FHP:1,2017-01-01T22:00:00Z,28.1530,-82.8010,-9.852,1111122 
COMPS,ioos:station:USF.COMPS:FHP:1,2017-01-01T22:06:00Z,28.1530,-82.8010,-9.862,1111122 
COMPS,ioos:station:USF.COMPS:FHP:1,2017-01-01T22:12:00Z,28.1530,-82.8010,-9.866,1111122 
COMPS,ioos:station:USF.COMPS:FHP:1,2017-01-01T22:18:00Z,28.1530,-82.8010,-9.88,1111122 
COMPS,ioos:station:USF.COMPS:FHP:1,2017-01-01T22:24:00Z,28.1530,-82.8010,-9.895,1111122 
COMPS,ioos:station:USF.COMPS:FHP:1,2017-01-01T22:30:00Z,28.1530,-82.8010,-9.909,1111122 
COMPS,ioos:station:USF.COMPS:FHP:1,2017-01-01T22:36:00Z,28.1530,-82.8010,-9.922,1111122 
COMPS,ioos:station:USF.COMPS:FHP:1,2017-01-01T22:42:00Z,28.1530,-82.8010,-9.936,1111122 
COMPS,ioos:station:USF.COMPS:FHP:1,2017-01-01T22:48:00Z,28.1530,-82.8010,-9.941,1111122 
COMPS,ioos:station:USF.COMPS:FHP:1,2017-01-01T22:54:00Z,28.1530,-82.8010,-9.949,1111122 
COMPS,ioos:station:USF.COMPS:FHP:1,2017-01-01T23:00:00Z,28.1530,-82.8010,-9.959,1111122 
COMPS,ioos:station:USF.COMPS:FHP:1,2017-01-01T23:06:00Z,28.1530,-82.8010,-9.976,1111122 
COMPS,ioos:station:USF.COMPS:FHP:1,2017-01-01T23:12:00Z,28.1530,-82.8010,-9.983,1111122 
COMPS,ioos:station:USF.COMPS:FHP:1,2017-01-01T23:18:00Z,28.1530,-82.8010,-9.997,1111122 
COMPS,ioos:station:USF.COMPS:FHP:1,2017-01-02T02:00:00Z,28.1530,-82.8010,-9.992,1111122 
COMPS,ioos:station:USF.COMPS:FHP:1,2017-01-02T02:06:00Z,28.1530,-82.8010,-9.977,1111122 
COMPS,ioos:station:USF.COMPS:FHP:1,2017-01-02T02:12:00Z,28.1530,-82.8010,-9.965,1111122 
COMPS,ioos:station:USF.COMPS:FHP:1,2017-01-02T02:18:00Z,28.1530,-82.8010,-9.944,1111122 
COMPS,ioos:station:USF.COMPS:FHP:1,2017-01-02T02:24:00Z,28.1530,-82.8010,-9.935,1111122 
COMPS,ioos:station:USF.COMPS:FHP:1,2017-01-02T02:30:00Z,28.1530,-82.8010,-9.919,1111122 
COMPS,ioos:station:USF.COMPS:FHP:1,2017-01-02T02:36:00Z,28.1530,-82.8010,-9.908,1111122 
COMPS,ioos:station:USF.COMPS:FHP:1,2017-01-02T02:42:00Z,28.1530,-82.8010,-9.893,1111122 
COMPS,ioos:station:USF.COMPS:FHP:1,2017-01-02T02:48:00Z,28.1530,-82.8010,-9.879,1111122 
COMPS,ioos:station:USF.COMPS:FHP:1,2017-01-02T02:54:00Z,28.1530,-82.8010,-9.858,1111122 
COMPS,ioos:station:USF.COMPS:FHP:1,2017-01-02T03:00:00Z,28.1530,-82.8010,-9.842,1111122 
COMPS,ioos:station:USF.COMPS:FHP:1,2017-01-02T03:06:00Z,28.1530,-82.8010,-9.825,1111122 
COMPS,ioos:station:USF.COMPS:FHP:1,2017-01-02T03:12:00Z,28.1530,-82.8010,-9.806,1111122 
COMPS,ioos:station:USF.COMPS:FHP:1,2017-01-02T03:18:00Z,28.1530,-82.8010,-9.79,1111122 
COMPS,ioos:station:USF.COMPS:FHP:1,2017-01-02T03:24:00Z,28.1530,-82.8010,-9.772,1111122 
COMPS,ioos:station:USF.COMPS:FHP:1,2017-01-02T03:30:00Z,28.1530,-82.8010,-9.755,1111122 
COMPS,ioos:station:USF.COMPS:FHP:1,2017-01-02T03:36:00Z,28.1530,-82.8010,-9.741,1111122 
COMPS,ioos:station:USF.COMPS:FHP:1,2017-01-02T03:42:00Z,28.1530,-82.8010,-9.726,1111122 
COMPS,ioos:station:USF.COMPS:FHP:1,2017-01-02T03:48:00Z,28.1530,-82.8010,-9.711,1111122 
COMPS,ioos:station:USF.COMPS:FHP:1,2017-01-02T03:54:00Z,28.1530,-82.8010,-9.694,1111122 
COMPS,ioos:station:USF.COMPS:FHP:1,2017-01-02T04:00:00Z,28.1530,-82.8010,-9.679,1111122 
COMPS,ioos:station:USF.COMPS:FHP:1,2017-01-02T04:06:00Z,28.1530,-82.8010,-9.667,1111122 
COMPS,ioos:station:USF.COMPS:FHP:1,2017-01-02T04:12:00Z,28.1530,-82.8010,-9.654,1111122 
COMPS,ioos:station:USF.COMPS:FHP:1,2017-01-02T04:18:00Z,28.1530,-82.8010,-9.645,1111122 
COMPS,ioos:station:USF.COMPS:FHP:1,2017-01-02T04:24:00Z,28.1530,-82.8010,-9.626,1111122 
COMPS,ioos:station:USF.COMPS:FHP:1,2017-01-02T04:30:00Z,28.1530,-82.8010,-9.613,1111122 
COMPS,ioos:station:USF.COMPS:FHP:1,2017-01-02T04:36:00Z,28.1530,-82.8010,-9.6,1111122 
COMPS,ioos:station:USF.COMPS:FHP:1,2017-01-02T04:42:00Z,28.1530,-82.8010,-9.583,1111122 
COMPS,ioos:station:USF.COMPS:FHP:1,2017-01-02T04:48:00Z,28.1530,-82.8010,-9.576,1111122 
COMPS,ioos:station:USF.COMPS:FHP:1,2017-01-02T04:54:00Z,28.1530,-82.8010,-9.563,1111122 
COMPS,ioos:station:USF.COMPS:FHP:1,2017-01-02T05:00:00Z,28.1530,-82.8010,-9.555,1111122 
COMPS,ioos:station:USF.COMPS:FHP:1,2017-01-02T05:06:00Z,28.1530,-82.8010,-9.543,1111122 
COMPS,ioos:station:USF.COMPS:FHP:1,2017-01-02T05:12:00Z,28.1530,-82.8010,-9.538,1111122 
COMPS,ioos:station:USF.COMPS:FHP:1,2017-01-02T05:18:00Z,28.1530,-82.8010,-9.532,1111122 
COMPS,ioos:station:USF.COMPS:FHP:1,2017-01-02T05:24:00Z,28.1530,-82.8010,-9.527,1111122 
COMPS,ioos:station:USF.COMPS:FHP:1,2017-01-02T05:30:00Z,28.1530,-82.8010,-9.524,1111122 
COMPS,ioos:station:USF.COMPS:FHP:1,2017-01-02T05:36:00Z,28.1530,-82.8010,-9.522,1111122 
COMPS,ioos:station:USF.COMPS:FHP:1,2017-01-02T05:42:00Z,28.1530,-82.8010,-9.515,1111122 
COMPS,ioos:station:USF.COMPS:FHP:1,2017-01-02T05:48:00Z,28.1530,-82.8010,-9.52,1111122 
COMPS,ioos:station:USF.COMPS:FHP:1,2017-01-02T05:54:00Z,28.1530,-82.8010,-9.513,1111122 
COMPS,ioos:station:USF.COMPS:FHP:1,2017-01-02T06:00:00Z,28.1530,-82.8010,-9.514,1111122 
COMPS,ioos:station:USF.COMPS:FHP:1,2017-01-02T06:06:00Z,28.1530,-82.8010,-9.509,1111122 
COMPS,ioos:station:USF.COMPS:FHP:1,2017-01-02T06:12:00Z,28.1530,-82.8010,-9.508,1111122 
COMPS,ioos:station:USF.COMPS:FHP:1,2017-01-02T06:18:00Z,28.1530,-82.8010,-9.511,1111122 
COMPS,ioos:station:USF.COMPS:FHP:1,2017-01-02T06:24:00Z,28.1530,-82.8010,-9.517,1111122 
COMPS,ioos:station:USF.COMPS:FHP:1,2017-01-02T06:30:00Z,28.1530,-82.8010,-9.525,1111122 
COMPS,ioos:station:USF.COMPS:FHP:1,2017-01-02T06:36:00Z,28.1530,-82.8010,-9.537,1111122 
COMPS,ioos:station:USF.COMPS:FHP:1,2017-01-02T06:42:00Z,28.1530,-82.8010,-9.535,1111122 
COMPS,ioos:station:USF.COMPS:FHP:1,2017-01-02T06:48:00Z,28.1530,-82.8010,-9.545,1111122 
COMPS,ioos:station:USF.COMPS:FHP:1,2017-01-02T06:54:00Z,28.1530,-82.8010,-9.549,1111122 
COMPS,ioos:station:USF.COMPS:FHP:1,2017-01-02T07:00:00Z,28.1530,-82.8010,-9.564,1111122 
COMPS,ioos:station:USF.COMPS:FHP:1,2017-01-02T07:06:00Z,28.1530,-82.8010,-9.568,1111122 
COMPS,ioos:station:USF.COMPS:FHP:1,2017-01-02T07:12:00Z,28.1530,-82.8010,-9.588,1111122 
COMPS,ioos:station:USF.COMPS:FHP:1,2017-01-02T07:18:00Z,28.1530,-82.8010,-9.598,1111122 
COMPS,ioos:station:USF.COMPS:FHP:1,2017-01-02T07:24:00Z,28.1530,-82.8010,-9.605,1111122 
COMPS,ioos:station:USF.COMPS:FHP:1,2017-01-02T07:30:00Z,28.1530,-82.8010,-9.612,1111122 
COMPS,ioos:station:USF.COMPS:FHP:1,2017-01-02T07:36:00Z,28.1530,-82.8010,-9.626,1111122 
COMPS,ioos:station:USF.COMPS:FHP:1,2017-01-02T07:42:00Z,28.1530,-82.8010,-9.638,1111122 
COMPS,ioos:station:USF.COMPS:FHP:1,2017-01-02T07:48:00Z,28.1530,-82.8010,-9.65,1111122 
COMPS,ioos:station:USF.COMPS:FHP:1,2017-01-02T07:54:00Z,28.1530,-82.8010,-9.662,1111122 
COMPS,ioos:station:USF.COMPS:FHP:1,2017-01-02T08:00:00Z,28.1530,-82.8010,-9.682,1111122 
COMPS,ioos:station:USF.COMPS:FHP:1,2017-01-02T08:06:00Z,28.1530,-82.8010,-9.697,1111122 
COMPS,ioos:station:USF.COMPS:FHP:1,2017-01-02T08:12:00Z,28.1530,-82.8010,-9.715,1111122 
COMPS,ioos:station:USF.COMPS:FHP:1,2017-01-02T08:18:00Z,28.1530,-82.8010,-9.722,1111122 
COMPS,ioos:station:USF.COMPS:FHP:1,2017-01-02T08:24:00Z,28.1530,-82.8010,-9.746,1111122 
COMPS,ioos:station:USF.COMPS:FHP:1,2017-01-02T08:30:00Z,28.1530,-82.8010,-9.762,1111122 
COMPS,ioos:station:USF.COMPS:FHP:1,2017-01-02T08:36:00Z,28.1530,-82.8010,-9.779,1111122 
COMPS,ioos:station:USF.COMPS:FHP:1,2017-01-02T08:42:00Z,28.1530,-82.8010,-9.797,1111122 
COMPS,ioos:station:USF.COMPS:FHP:1,2017-01-02T08:48:00Z,28.1530,-82.8010,-9.815,1111122 
COMPS,ioos:station:USF.COMPS:FHP:1,2017-01-02T08:54:00Z,28.1530,-82.8010,-9.829,1111122 
COMPS,ioos:station:USF.COMPS:FHP:1,2017-01-02T09:00:00Z,28.1530,-82.8010,-9.84,1111122 
COMPS,ioos:station:USF.COMPS:FHP:1,2017-01-02T09:06:00Z,28.1530,-82.8010,-9.86,1111122 
COMPS,ioos:station:USF.COMPS:FHP:1,2017-01-02T09:12:00Z,28.1530,-82.8010,-9.874,1111122 
COMPS,ioos:station:USF.COMPS:FHP:1,2017-01-02T09:18:00Z,28.1530,-82.8010,-9.886,1111122 
COMPS,ioos:station:USF.COMPS:FHP:1,2017-01-02T09:24:00Z,28.1530,-82.8010,-9.902,1111122 
COMPS,ioos:station:USF.COMPS:FHP:1,2017-01-02T09:30:00Z,28.1530,-82.8010,-9.913,1111122 
COMPS,ioos:station:USF.COMPS:FHP:1,2017-01-02T09:36:00Z,28.1530,-82.8010,-9.933,1111122 
COMPS,ioos:station:USF.COMPS:FHP:1,2017-01-02T09:42:00Z,28.1530,-82.8010,-9.949,1111122 
COMPS,ioos:station:USF.COMPS:FHP:1,2017-01-02T09:48:00Z,28.1530,-82.8010,-9.973,1111122 
COMPS,ioos:station:USF.COMPS:FHP:1,2017-01-02T09:54:00Z,28.1530,-82.8010,-9.988,1111122 
COMPS,ioos:station:USF.COMPS:FHP:1,2017-01-02T17:48:00Z,28.1530,-82.8010,-9.996,1111122 
COMPS,ioos:station:USF.COMPS:FHP:1,2017-01-02T17:54:00Z,28.1530,-82.8010,-9.97,1111122 
COMPS,ioos:station:USF.COMPS:FHP:1,2017-01-02T18:00:00Z,28.1530,-82.8010,-9.964,1111122 
COMPS,ioos:station:USF.COMPS:FHP:1,2017-01-02T18:06:00Z,28.1530,-82.8010,-9.939,1111122 
COMPS,ioos:station:USF.COMPS:FHP:1,2017-01-02T18:12:00Z,28.1530,-82.8010,-9.922,1111122 
COMPS,ioos:station:USF.COMPS:FHP:1,2017-01-02T18:18:00Z,28.1530,-82.8010,-9.899,1111122 
COMPS,ioos:station:USF.COMPS:FHP:1,2017-01-02T18:24:00Z,28.1530,-82.8010,-9.877,1111122 
COMPS,ioos:station:USF.COMPS:FHP:1,2017-01-02T18:30:00Z,28.1530,-82.8010,-9.856,1111122 
COMPS,ioos:station:USF.COMPS:FHP:1,2017-01-02T18:36:00Z,28.1530,-82.8010,-9.835,1111122 
COMPS,ioos:station:USF.COMPS:FHP:1,2017-01-02T18:42:00Z,28.1530,-82.8010,-9.827,1111122 
COMPS,ioos:station:USF.COMPS:FHP:1,2017-01-02T18:48:00Z,28.1530,-82.8010,-9.814,1111122 
COMPS,ioos:station:USF.COMPS:FHP:1,2017-01-02T18:54:00Z,28.1530,-82.8010,-9.811,1111122 
COMPS,ioos:station:USF.COMPS:FHP:1,2017-01-02T19:00:00Z,28.1530,-82.8010,-9.792,1111122 
COMPS,ioos:station:USF.COMPS:FHP:1,2017-01-02T19:06:00Z,28.1530,-82.8010,-9.785,1111122 
COMPS,ioos:station:USF.COMPS:FHP:1,2017-01-02T19:12:00Z,28.1530,-82.8010,-9.772,1111122 
COMPS,ioos:station:USF.COMPS:FHP:1,2017-01-02T19:18:00Z,28.1530,-82.8010,-9.767,1111122 
COMPS,ioos:station:USF.COMPS:FHP:1,2017-01-02T19:24:00Z,28.1530,-82.8010,-9.768,1111122 
COMPS,ioos:station:USF.COMPS:FHP:1,2017-01-02T19:30:00Z,28.1530,-82.8010,-9.762,1111122 
COMPS,ioos:station:USF.COMPS:FHP:1,2017-01-02T19:36:00Z,28.1530,-82.8010,-9.757,1111122 
COMPS,ioos:station:USF.COMPS:FHP:1,2017-01-02T19:42:00Z,28.1530,-82.8010,-9.749,1111122 
COMPS,ioos:station:USF.COMPS:FHP:1,2017-01-02T19:48:00Z,28.1530,-82.8010,-9.746,1111122 
COMPS,ioos:station:USF.COMPS:FHP:1,2017-01-02T19:54:00Z,28.1530,-82.8010,-9.744,1111122 
COMPS,ioos:station:USF.COMPS:FHP:1,2017-01-02T20:00:00Z,28.1530,-82.8010,-9.745,1111122 
COMPS,ioos:station:USF.COMPS:FHP:1,2017-01-02T20:06:00Z,28.1530,-82.8010,-9.757,1111122 
COMPS,ioos:station:USF.COMPS:FHP:1,2017-01-02T20:12:00Z,28.1530,-82.8010,-9.759,1111122 
COMPS,ioos:station:USF.COMPS:FHP:1,2017-01-02T20:18:00Z,28.1530,-82.8010,-9.755,1111122 
COMPS,ioos:station:USF.COMPS:FHP:1,2017-01-02T20:24:00Z,28.1530,-82.8010,-9.759,1111122 
COMPS,ioos:station:USF.COMPS:FHP:1,2017-01-02T20:30:00Z,28.1530,-82.8010,-9.758,1111122 
COMPS,ioos:station:USF.COMPS:FHP:1,2017-01-02T20:36:00Z,28.1530,-82.8010,-9.77,1111122 
COMPS,ioos:station:USF.COMPS:FHP:1,2017-01-02T20:42:00Z,28.1530,-82.8010,-9.774,1111122 
COMPS,ioos:station:USF.COMPS:FHP:1,2017-01-02T20:48:00Z,28.1530,-82.8010,-9.783,1111122 
COMPS,ioos:station:USF.COMPS:FHP:1,2017-01-02T20:54:00Z,28.1530,-82.8010,-9.788,1111122 
COMPS,ioos:station:USF.COMPS:FHP:1,2017-01-02T21:00:00Z,28.1530,-82.8010,-9.798,1111122 
COMPS,ioos:station:USF.COMPS:FHP:1,2017-01-02T21:06:00Z,28.1530,-82.8010,-9.805,1111122 
COMPS,ioos:station:USF.COMPS:FHP:1,2017-01-02T21:12:00Z,28.1530,-82.8010,-9.821,1111122 
COMPS,ioos:station:USF.COMPS:FHP:1,2017-01-02T21:18:00Z,28.1530,-82.8010,-9.832,1111122 
COMPS,ioos:station:USF.COMPS:FHP:1,2017-01-02T21:24:00Z,28.1530,-82.8010,-9.843,1111122 
COMPS,ioos:station:USF.COMPS:FHP:1,2017-01-02T21:30:00Z,28.1530,-82.8010,-9.852,1111122 
COMPS,ioos:station:USF.COMPS:FHP:1,2017-01-02T21:36:00Z,28.1530,-82.8010,-9.853,1111122 
COMPS,ioos:station:USF.COMPS:FHP:1,2017-01-02T21:42:00Z,28.1530,-82.8010,-9.858,1111122 
COMPS,ioos:station:USF.COMPS:FHP:1,2017-01-02T21:48:00Z,28.1530,-82.8010,-9.867,1111122 
COMPS,ioos:station:USF.COMPS:FHP:1,2017-01-02T21:54:00Z,28.1530,-82.8010,-9.869,1111122 
COMPS,ioos:station:USF.COMPS:FHP:1,2017-01-02T22:00:00Z,28.1530,-82.8010,-9.879,1111122 
COMPS,ioos:station:USF.COMPS:FHP:1,2017-01-02T22:06:00Z,28.1530,-82.8010,-9.879,1111122 
COMPS,ioos:station:USF.COMPS:FHP:1,2017-01-02T22:12:00Z,28.1530,-82.8010,-9.884,1111122 
COMPS,ioos:station:USF.COMPS:FHP:1,2017-01-02T22:18:00Z,28.1530,-82.8010,-9.897,1111122 
COMPS,ioos:station:USF.COMPS:FHP:1,2017-01-02T22:24:00Z,28.1530,-82.8010,-9.91,1111122 
COMPS,ioos:station:USF.COMPS:FHP:1,2017-01-02T22:30:00Z,28.1530,-82.8010,-9.92,1111122 
COMPS,ioos:station:USF.COMPS:FHP:1,2017-01-02T22:36:00Z,28.1530,-82.8010,-9.931,1111122 
COMPS,ioos:station:USF.COMPS:FHP:1,2017-01-02T22:42:00Z,28.1530,-82.8010,-9.946,1111122 
COMPS,ioos:station:USF.COMPS:FHP:1,2017-01-02T22:48:00Z,28.1530,-82.8010,-9.965,1111122 
COMPS,ioos:station:USF.COMPS:FHP:1,2017-01-02T22:54:00Z,28.1530,-82.8010,-9.975,1111122 
COMPS,ioos:station:USF.COMPS:FHP:1,2017-01-02T23:00:00Z,28.1530,-82.8010,-9.983,1111122 